sat.trackr.live / text

‹ back to catalog

AEROCUBE 6B

NORAD 40046 · 2014-033AN

PAYLOAD ACTIVE UNKNOWN

§ Identity

Operator
Country
US
Launch date
2014-06-19
Launch site
DLS
Launch vehicle
Mass (kg)
RCS (m²)
0.01

Purposes: tech_demo

External: N2YO · Heavens-Above · Gunter

§ Orbital elements

Epoch: 2026-09-19T16:26:25.337472Z

Period
95.97 min
Inclination
97.7359°
Eccentricity
0.0041087
Mean motion
15.00482742 rev/d
Perigee alt
536.9 km
Apogee alt
593.9 km
Semi-major
6,943.5 km
B*
3.4221e-4
RAAN
68.7125°
Arg perigee
42.9812°
Mean anomaly
317.4609°
Rev number
66,092

§ Raw data

AEROCUBE 6B1 40046U 14033AN  26262.68501548  .00004325  00000+0  34221-3 0  99982 40046  97.7359  68.7125 0041087  42.9812 317.4609 15.00482742660927

JSON: /api/v1/satellites/40046 · /tle

For live sub-satellite position, see the globe view (requires WebGL).

§ Visibility from observer

Set your observer location to see the next 7 days of passes ≥ 10°. The values pass through the URL so the page stays shareable.

No JS? Fill the form by hand. The geolocation button needs JavaScript.